RADUGA 9 [-]

Last updated on Jan. 22, 2021, 6:27 a.m. UTC

1 12618U 81069A   21020.92675507 -.00000346  00000-0  00000+0 0  9991
2 12618  11.0786 313.4046 0003332  77.3777 177.6113  1.00273755108547
UTC
Height (km)
Latitude
Longitude
Inclination
Orbital Period
UTC large
Height (km)
Speed (km/s)
/
Latitude / Longitude
Inclination (degrees)
Orbital Period (minutes)
Azimuth
Elevation
Range (km)
Doppler Factor
iOS Compass Heading
iOS Angle

Next 30 passes for location: Hong Kong

Rise time Rise Azimuth (degrees) Set time Set Azimuth (degrees) Duration Max altitude (degrees)

No matching passes for this satellites